Location: Dannhausen
(51.8650°N, 10.1026°E)
Time: 05:23:57
(UTC+00:00)

STARLINK-1200 - Pass Details

Date: 09 April 2020
Orbit: 549 x 550 km, 53.0° (Epoch: 01 June)

Event Time Altitude Azimuth Distance (km) Brightness Sun altitude
Rises 19:29:25 0° 288° (WNW) 2,789 9.0 -12.5°
Reaches altitude 10° 19:31:42 10° 285° (WNW) 1,890 7.6 -12.8°
Maximum altitude 19:35:57 61° 205° (SSW) 661 3.9 -13.3°
Enters shadow 19:38:33 22° 131° (SE) 1,272 4.8 -13.7°
